Date String (YYYY-MM-DD hh:mm:ss) UTC,Instrument flags,Ambient pressure (hPa),Sample flow (lpm),Bypass flow (lpm),Sample temperature (°C),Ambient temperature (°C),ASC tube jacket temperature (°C),LED temperature (°C),Box temperature (°C),Sample RH (%),Span deviation,Mass concentration (μg/m³),Mass concentration (μg/m³),Mass concentration (μg/m³)
DateTimeUTC,F1_M11,P_M11,Q1_M11,Q2_M11,T1_M11,T2_M11,T3_M11,T4_M11,T5_M11,U1_M11,ZSPAN_M11,X0_M11,X2_M11,X1_M11
2022-11-27 13:00:00,,0822.4,4.99,0.00,24.6,23.1,00.0,33.6,26.5,18.5,0000.0,0008.35,0004.68,0004.33
2022-11-27 13:01:00,,0822.4,5.03,0.00,24.6,23.1,00.0,33.6,26.5,18.5,0000.0,0008.55,0004.69,0004.34
2022-11-27 13:02:00,,0822.4,5.00,0.00,24.6,23.1,00.0,33.5,26.5,18.5,0000.0,0009.09,0004.70,0004.34
2022-11-27 13:03:00,,0822.4,4.99,0.00,24.5,23.0,00.0,33.5,26.4,18.5,0000.0,0008.90,0004.71,0004.34
2022-11-27 13:04:00,,0822.4,5.01,0.00,24.5,23.0,00.0,33.5,26.4,18.5,0000.0,0008.69,0004.73,0004.35
2022-11-27 13:05:00,,0822.3,5.00,0.00,24.5,23.0,00.0,33.5,26.4,18.6,0000.0,0008.64,0004.74,0004.35
2022-11-27 13:06:00,,0822.4,5.00,0.00,24.5,22.9,00.0,33.5,26.3,18.6,0000.0,0008.67,0004.76,0004.37
2022-11-27 13:07:00,,0822.4,5.00,0.00,24.4,22.9,00.0,33.5,26.3,18.6,0000.0,0008.68,0004.77,0004.40
2022-11-27 13:08:00,,0822.4,4.99,0.00,24.4,22.9,00.0,33.5,26.3,18.6,0000.0,0008.62,0004.76,0004.43
2022-11-27 13:09:00,,0822.4,4.99,0.00,24.4,22.9,00.0,33.5,26.3,18.6,0000.0,0008.68,0004.79,0004.46
2022-11-27 13:10:00,,0822.4,5.01,0.00,24.4,22.9,00.0,33.4,26.3,18.6,0000.0,0008.64,0004.86,0004.50
2022-11-27 13:11:00,,0822.4,5.01,0.00,24.4,23.0,00.0,33.4,26.3,18.7,0000.0,0008.78,0004.89,0004.54
2022-11-27 13:12:00,,0822.4,5.00,0.00,24.4,23.0,00.0,33.4,26.3,18.7,0000.0,0008.71,0004.93,0004.57
2022-11-27 13:13:00,,0822.4,5.00,0.00,24.4,23.0,00.0,33.4,26.3,18.6,0000.0,0008.95,0004.96,0004.60
2022-11-27 13:14:00,,0822.5,4.99,0.00,24.4,23.0,00.0,33.4,26.3,18.6,0000.0,0008.92,0005.00,0004.63
2022-11-27 13:15:00,,0822.4,5.00,0.00,24.4,23.0,00.0,33.4,26.3,18.6,0000.0,0008.91,0005.04,0004.68
2022-11-27 13:16:00,,0822.5,5.01,0.00,24.4,23.0,00.0,33.4,26.3,18.6,0000.0,0009.25,0005.16,0004.78
2022-11-27 13:17:00,,0822.4,5.00,0.00,24.4,23.0,00.0,33.4,26.3,18.6,0000.0,0009.41,0005.28,0004.88
2022-11-27 13:18:00,,0822.4,5.01,0.00,24.4,23.0,00.0,33.4,26.3,18.6,0000.0,0009.61,0005.32,0004.93
2022-11-27 13:19:00,,0822.4,5.00,0.00,24.4,23.0,00.0,33.4,26.3,18.6,0000.0,0010.27,0005.40,0004.98
2022-11-27 13:20:00,,0822.4,4.99,0.00,24.4,23.0,00.0,33.4,26.3,18.5,0000.0,0010.24,0005.43,0005.02
2022-11-27 13:21:00,,0822.4,4.99,0.00,24.4,23.0,00.0,33.4,26.3,18.5,0000.0,0010.14,0005.44,0005.06
2022-11-27 13:22:00,,0822.5,5.02,0.00,24.4,23.0,00.0,33.4,26.3,18.5,0000.0,0010.04,0005.50,0005.09
2022-11-27 13:23:00,,0822.4,5.00,0.00,24.4,23.0,00.0,33.4,26.3,18.5,0000.0,0010.10,0005.52,0005.11
2022-11-27 13:24:00,,0822.5,4.99,0.00,24.4,23.0,00.0,33.4,26.3,18.5,0000.0,0009.38,0005.51,0005.10
2022-11-27 13:25:00,,0822.4,4.99,0.00,24.4,23.0,00.0,33.4,26.3,18.5,0000.0,0009.30,0005.48,0005.05
2022-11-27 13:26:00,,0822.4,5.00,0.00,24.4,22.9,00.0,33.4,26.3,18.5,0000.0,0009.25,0005.43,0005.00
2022-11-27 13:27:00,,0822.4,5.01,0.00,24.4,22.9,00.0,33.4,26.3,18.4,0000.0,0008.99,0005.35,0004.93
2022-11-27 13:28:00,,0822.4,4.99,0.00,24.3,22.9,00.0,33.3,26.2,18.5,0000.0,0008.83,0005.24,0004.85
2022-11-27 13:29:00,,0822.4,4.99,0.00,24.3,22.9,00.0,33.3,26.2,18.6,0000.0,0008.60,0005.20,0004.82
2022-11-27 13:30:00,,0822.4,5.01,0.00,24.3,22.7,00.0,33.3,26.1,18.6,0000.0,0008.69,0005.19,0004.80
2022-11-27 13:31:00,,0822.4,5.00,0.00,24.3,22.6,00.0,33.3,26.1,18.7,0000.0,0008.92,0005.17,0004.79
2022-11-27 13:32:00,,0822.4,4.98,0.00,24.3,22.5,00.0,33.3,26.1,18.7,0000.0,0008.98,0005.17,0004.77
2022-11-27 13:33:00,,0822.4,5.00,0.00,24.2,22.4,00.0,33.3,26.1,18.8,0000.0,0009.03,0005.16,0004.79
2022-11-27 13:34:00,,0822.3,5.02,0.00,24.2,22.5,00.0,33.3,26.0,18.8,0000.0,0009.18,0005.16,0004.81
2022-11-27 13:35:00,,0822.4,4.98,0.00,24.2,22.5,00.0,33.3,26.1,18.8,0000.0,0009.18,0005.20,0004.86
2022-11-27 13:36:00,,0822.4,5.00,0.00,24.2,22.5,00.0,33.2,26.1,18.8,0000.0,0009.32,0005.28,0004.95
2022-11-27 13:37:00,,0822.4,5.01,0.00,24.2,22.6,00.0,33.2,26.1,18.8,0000.0,0009.34,0005.33,0004.99
2022-11-27 13:38:00,,0822.3,4.99,0.00,24.2,22.6,00.0,33.2,26.1,18.7,0000.0,0009.57,0005.38,0005.02
2022-11-27 13:39:00,,0822.4,5.00,0.00,24.2,22.7,00.0,33.2,26.0,18.7,0000.0,0009.61,0005.44,0005.04
2022-11-27 13:40:00,,0822.4,5.00,0.00,24.2,22.7,00.0,33.2,26.0,18.7,0000.0,0009.73,0005.48,0005.06
2022-11-27 13:41:00,,0822.4,4.99,0.00,24.2,22.7,00.0,33.2,26.0,18.7,0000.0,0009.29,0005.49,0005.07
2022-11-27 13:42:00,,0822.4,5.00,0.00,24.2,22.7,00.0,33.2,26.0,18.7,0000.0,0008.94,0005.51,0005.08
2022-11-27 13:43:00,,0822.4,5.01,0.00,24.2,22.7,00.0,33.1,26.0,18.7,0000.0,0008.95,0005.54,0005.09
2022-11-27 13:44:00,,0822.3,5.00,0.00,24.1,22.7,00.0,33.1,26.0,18.7,0000.0,0008.97,0005.50,0005.08
2022-11-27 13:45:00,,0822.4,4.99,0.00,24.2,22.8,00.0,33.1,26.1,18.7,0000.0,0008.88,0005.48,0005.05
2022-11-27 13:46:00,,0822.3,5.01,0.00,24.2,22.8,00.0,33.1,26.1,18.7,0000.0,0008.91,0005.47,0005.04
2022-11-27 13:47:00,,0822.3,4.99,0.00,24.2,22.8,00.0,33.1,26.1,18.7,0000.0,0009.04,0005.45,0005.03
2022-11-27 13:48:00,,0822.3,4.99,0.00,24.2,22.8,00.0,33.1,26.1,18.7,0000.0,0009.39,0005.49,0005.04
2022-11-27 13:49:00,,0822.2,5.02,0.00,24.2,22.8,00.0,33.1,26.1,18.7,0000.0,0009.12,0005.47,0005.04
2022-11-27 13:50:00,,0822.3,4.99,0.00,24.2,22.8,00.0,33.1,26.1,18.7,0000.0,0009.38,0005.47,0005.04
2022-11-27 13:51:00,,0822.3,4.99,0.00,24.2,22.8,00.0,33.1,26.1,18.7,0000.0,0009.72,0005.47,0005.04
2022-11-27 13:52:00,,0822.2,5.00,0.00,24.2,22.8,00.0,33.1,26.1,18.8,0000.0,0009.70,0005.48,0005.03
2022-11-27 13:53:00,,0822.2,5.00,0.00,24.1,22.8,00.0,33.1,26.1,18.8,0000.0,0009.63,0005.45,0005.04
2022-11-27 13:54:00,,0822.2,4.99,0.00,24.1,22.8,00.0,33.1,26.0,18.8,0000.0,0009.60,0005.41,0005.02
2022-11-27 13:55:00,,0822.2,5.01,0.00,24.1,22.8,00.0,33.1,26.0,18.8,0000.0,0009.59,0005.45,0005.03
2022-11-27 13:56:00,,0822.3,5.00,0.00,24.1,22.8,00.0,33.1,26.0,18.8,0000.0,0009.63,0005.46,0005.04
2022-11-27 13:57:00,,0822.2,4.99,0.00,24.1,22.8,00.0,33.1,26.0,18.8,0000.0,0009.52,0005.46,0005.04
2022-11-27 13:58:00,,0822.2,5.01,0.00,24.1,22.8,00.0,33.1,26.0,18.8,0000.0,0009.29,0005.47,0005.04
2022-11-27 13:59:00,,0822.2,4.99,0.00,24.1,22.8,00.0,33.1,26.0,18.8,0000.0,0008.92,0005.44,0005.04
